KK4PWJ-13 Weather Reports


time (UTC)temp
C
wind
direction
speed
KPH
gust
KPH
rain 1hr
cm
rain 24hr
cm
rain mn
cm
humidity
%
barometer
mb
20260510162353 26 239 1.6 3.2 0.00 0.00 0.00 38 1013.8
20260510161848 26 126 0.0 3.2 0.00 0.00 0.00 43 1013.7
20260510161345 26 268 0.0 1.6 0.00 0.00 0.00 39 1013.7
20260510160842 26 95 3.2 3.2 0.00 0.00 0.00 41 1013.8
20260510160339 25 332 1.6 3.2 0.00 0.00 0.00 45 1013.6
20260510155838 25 18 1.6 1.6 0.00 0.00 0.00 45 1013.7
20260510155335 24 78 1.6 3.2 0.00 0.00 0.00 50 1013.9
20260510154831 24 166 0.0 1.6 0.00 0.00 0.00 53 1014.0
20260510154327 23 180 0.0 0.0 0.00 0.00 0.00 56 1013.7
20260510153821 23 148 1.6 4.8 0.00 0.00 0.00 54 1013.8
20260510153318 23 150 0.0 1.6 0.00 0.00 0.00 58 1013.9
20260510152814 23 150 0.0 1.6 0.00 0.00 0.00 57 1014.0
20260510152311 23 151 0.0 1.6 0.00 0.00 0.00 59 1014.0
20260510151808 22 147 0.0 1.6 0.00 0.00 0.00 52 1014.2
20260510151306 22 169 1.6 3.2 0.00 0.00 0.00 52 1014.1
20260510150801 22 168 3.2 3.2 0.00 0.00 0.00 54 1013.9
20260510150257 22 177 0.0 1.6 0.00 0.00 0.00 57 1014.1
20260510145753 22 177 0.0 1.6 0.00 0.00 0.00 61 1013.9
20260510145251 22 177 0.0 1.6 0.00 0.00 0.00 59 1013.9
20260510144747 21 177 0.0 1.6 0.00 0.00 0.00 57 1014.0
20260510144244 21 189 0.0 1.6 0.00 0.00 0.00 69 1013.6
20260510143743 21 154 1.6 1.6 0.00 0.00 0.00 69 1014.0
20260510143240 21 137 0.0 1.6 0.00 0.00 0.00 65 1013.9
20260510142736 20 136 1.6 1.6 0.00 0.00 0.00 66 1013.7
20260510142233 20 136 0.0 0.0 0.00 0.00 0.00 70 1013.7
20260510141730 20 137 1.6 1.6 0.00 0.00 0.00 67 1013.9
20260510141229 20 121 0.0 0.0 0.00 0.00 0.00 70 1013.9
20260510140726 20 107 0.0 1.6 0.00 0.00 0.00 75 1014.0
20260510140225 19 107 0.0 1.6 0.00 0.00 0.00 75 1013.9
20260510135720 19 106 0.0 3.2 0.00 0.00 0.00 80 1013.7
20260510135216 18 106 0.0 0.0 0.00 0.00 0.00 86 1013.9
20260510134714 18 106 0.0 0.0 0.00 0.00 0.00 86 1013.9
20260510134211 18 106 0.0 0.0 0.00 0.00 0.00 87 1013.9
20260510133706 18 106 0.0 0.0 0.00 0.00 0.00 89 1014.0
20260510133202 18 106 0.0 0.0 0.00 0.00 0.00 90 1013.9
20260510132658 17 106 0.0 0.0 0.00 0.00 0.00 92 1013.7
20260510132156 17 107 0.0 0.0 0.00 0.00 0.00 95 1014.0
20260510131653 16 107 0.0 0.0 0.00 0.00 0.00 97 1013.9
20260510131151 16 106 0.0 0.0 0.00 0.00 0.00 97 1013.8
20260510130647 16 106 0.0 0.0 0.00 0.00 0.00 98 1013.7
20260510130144 15 106 0.0 1.6 0.00 0.00 0.00 98 1013.8
20260510125640 15 106 0.0 0.0 0.00 0.00 0.00 99 1013.7
20260510125137 15 106 0.0 0.0 0.00 0.00 0.00 99 1013.6
20260510124634 14 106 0.0 0.0 0.00 0.00 0.00 99 1013.7
20260510124131 14 106 0.0 0.0 0.00 0.00 0.00 99 1013.7
20260510123626 13 106 0.0 0.0 0.00 0.00 0.00 99 1013.5
20260510123122 13 106 0.0 0.0 0.00 0.00 0.00 99 1013.4
20260510122618 13 106 0.0 0.0 0.00 0.00 0.00 99 1013.4
20260510122114 13 106 0.0 0.0 0.00 0.00 0.00 99 1013.2
20260510121611 13 106 0.0 0.0 0.00 0.00 0.00 99 1013.2
20260510121108 12 106 0.0 0.0 0.00 0.00 0.00 99 1012.8
20260510120607 12 106 0.0 0.0 0.00 0.00 0.00 99 1013.2
20260510115558 12 106 0.0 0.0 0.00 0.00 0.00 99 1012.8
20260510115056 12 106 0.0 0.0 0.00 0.00 0.00 99 1012.9
20260510114551 12 106 0.0 0.0 0.00 0.00 0.00 99 1013.0
20260510114048 12 106 0.0 0.0 0.00 0.00 0.00 99 1012.9
20260510113543 12 106 0.0 0.0 0.00 0.00 0.00 99 1012.7
20260510113041 12 106 0.0 0.0 0.00 0.00 0.00 99 1013.0
20260510112537 12 106 0.0 0.0 0.00 0.00 0.00 99 1012.8
20260510112034 12 106 0.0 0.0 0.00 0.00 0.00 99 1012.4
20260510111531 12 106 0.0 0.0 0.00 0.00 0.00 99 1012.5
20260510111026 12 106 0.0 0.0 0.00 0.00 0.00 99 1012.3
20260510110522 12 106 0.0 0.0 0.00 0.00 0.00 99 1012.3
20260510110019 12 106 0.0 0.0 0.00 0.00 0.00 99 1012.2
20260510105514 12 106 0.0 0.0 0.00 0.00 0.00 99 1012.1
20260510105009 12 106 0.0 0.0 0.00 0.00 0.00 99 1012.3
20260510104506 12 106 0.0 0.0 0.00 0.00 0.00 99 1012.0
20260510104003 12 106 0.0 0.0 0.00 0.00 0.00 99 1011.8
20260510103500 12 106 0.0 0.0 0.00 0.00 0.00 99 1011.8
20260510102955 12 106 0.0 0.0 0.00 0.00 0.00 99 1011.8
20260510102451 12 106 0.0 0.0 0.00 0.00 0.00 99 1011.7
20260510101948 12 106 0.0 0.0 0.00 0.00 0.00 99 1011.6
20260510101446 12 106 0.0 0.0 0.00 0.00 0.00 99 1011.5
20260510100944 12 106 0.0 0.0 0.00 0.00 0.00 99 1011.4
20260510100440 12 106 0.0 0.0 0.00 0.00 0.00 99 1011.3
20260510095937 12 106 0.0 0.0 0.00 0.00 0.00 99 1011.2
20260510095432 12 106 0.0 0.0 0.00 0.00 0.00 99 1011.2
20260510094931 12 106 0.0 0.0 0.00 0.00 0.00 99 1011.2
20260510094426 12 106 0.0 0.0 0.00 0.00 0.00 99 1011.2
20260510093923 12 106 0.0 0.0 0.00 0.00 0.00 99 1011.1
20260510093418 12 106 0.0 0.0 0.00 0.00 0.00 99 1010.8
20260510092915 12 106 0.0 0.0 0.00 0.00 0.00 99 1011.1
20260510092413 12 106 0.0 0.0 0.00 0.00 0.00 99 1010.8
20260510091912 12 106 0.0 0.0 0.00 0.00 0.00 99 1010.9
20260510091409 13 106 0.0 0.0 0.00 0.00 0.00 99 1010.9
20260510090906 13 106 0.0 0.0 0.00 0.00 0.00 99 1010.8
20260510090403 13 106 0.0 0.0 0.00 0.00 0.00 99 1010.8
20260510085858 12 106 0.0 0.0 0.00 0.00 0.00 99 1010.8
20260510085354 12 106 0.0 0.0 0.00 0.00 0.00 98 1010.9
20260510084849 12 106 0.0 0.0 0.00 0.00 0.00 98 1010.8
20260510084347 13 106 0.0 0.0 0.00 0.00 0.00 98 1010.7
20260510083843 13 106 0.0 0.0 0.00 0.00 0.00 98 1010.6
20260510083340 13 106 0.0 0.0 0.00 0.00 0.00 98 1010.5
20260510082835 13 106 0.0 0.0 0.00 0.00 0.00 98 1010.4
20260510082333 13 106 0.0 0.0 0.00 0.00 0.00 98 1010.5
20260510081831 13 106 0.0 0.0 0.00 0.00 0.00 98 1010.6
20260510081328 13 106 0.0 0.0 0.00 0.00 0.00 98 1010.6
20260510080824 13 106 0.0 0.0 0.00 0.00 0.00 98 1010.5
20260510080319 13 106 0.0 0.0 0.00 0.00 0.00 98 1010.4
20260510075817 13 106 0.0 0.0 0.00 0.00 0.00 98 1010.4
20260510075314 13 106 0.0 0.0 0.00 0.00 0.00 98 1010.4
20260510074810 13 106 0.0 0.0 0.00 0.00 0.00 98 1010.5
20260510074308 13 106 0.0 0.0 0.00 0.00 0.00 99 1010.5
20260510073803 13 106 0.0 0.0 0.00 0.00 0.00 99 1010.4
20260510073259 13 106 0.0 0.0 0.00 0.00 0.00 98 1010.4
20260510072755 13 106 0.0 0.0 0.00 0.00 0.00 98 1010.4
20260510072252 13 106 0.0 0.0 0.00 0.00 0.00 98 1010.5
20260510071748 13 106 0.0 0.0 0.00 0.00 0.00 98 1010.3
20260510071245 13 106 0.0 0.0 0.00 0.00 0.00 98 1010.2
20260510070744 13 106 0.0 0.0 0.00 0.00 0.00 98 1010.2
20260510070241 13 106 0.0 0.0 0.00 0.00 0.00 98 1010.2
20260510065740 13 106 0.0 0.0 0.00 0.00 0.00 98 1010.2
20260510065237 13 106 0.0 0.0 0.00 0.00 0.00 98 1010.2
20260510064734 13 106 0.0 0.0 0.00 0.00 0.00 98 1010.2
20260510064232 13 106 0.0 0.0 0.00 0.00 0.00 98 1010.1
20260510063728 13 106 0.0 0.0 0.00 0.00 0.00 98 1010.1
20260510063224 13 106 0.0 0.0 0.00 0.00 0.00 98 1010.2
20260510062721 13 106 0.0 0.0 0.00 0.00 0.00 98 1010.2
20260510062217 13 106 0.0 0.0 0.00 0.00 0.00 98 1010.1
20260510061712 13 106 0.0 0.0 0.00 0.00 0.00 97 1010.0
20260510061210 13 106 0.0 0.0 0.00 0.00 0.00 97 1010.0
20260510060706 13 106 0.0 0.0 0.00 0.00 0.00 97 1009.9
20260510060203 13 106 0.0 0.0 0.00 0.00 0.00 98 1010.1
20260510055659 13 106 0.0 0.0 0.00 0.00 0.00 97 1010.2
20260510055157 13 106 0.0 0.0 0.00 0.00 0.00 97 1010.4
20260510054652 13 106 0.0 0.0 0.00 0.00 0.00 97 1010.6
20260510054148 13 106 0.0 0.0 0.00 0.00 0.00 97 1010.5
20260510053647 13 106 0.0 0.0 0.00 0.00 0.00 97 1010.4
20260510053145 13 106 0.0 0.0 0.00 0.00 0.00 97 1010.5
20260510052640 14 106 0.0 0.0 0.00 0.00 0.00 97 1010.4
20260510052137 14 106 0.0 0.0 0.00 0.00 0.00 98 1010.4
20260510051632 14 106 0.0 0.0 0.00 0.00 0.00 98 1010.8
20260510051129 14 106 0.0 0.0 0.00 0.00 0.00 98 1010.6
20260510050626 14 106 0.0 0.0 0.00 0.00 0.00 98 1010.6
20260510050124 14 106 0.0 0.0 0.00 0.00 0.00 98 1010.7
20260510045620 14 106 0.0 0.0 0.00 0.00 0.00 98 1010.7
20260510045117 14 106 0.0 0.0 0.00 0.00 0.00 98 1010.8
20260510044613 14 106 0.0 0.0 0.00 0.00 0.00 98 1010.8
20260510044111 14 106 0.0 0.0 0.00 0.00 0.00 98 1010.8
20260510043606 14 106 0.0 0.0 0.00 0.00 0.00 97 1010.6
20260510043102 14 106 0.0 0.0 0.00 0.00 0.00 97 1010.8
20260510042601 14 106 0.0 0.0 0.00 0.00 0.00 97 1010.8
20260510042056 14 106 0.0 0.0 0.00 0.00 0.00 97 1010.7
20260510041553 14 106 0.0 0.0 0.00 0.00 0.00 97 1010.7
20260510041051 14 106 0.0 0.0 0.00 0.00 0.00 97 1010.6
20260510040548 14 106 0.0 0.0 0.00 0.00 0.00 97 1010.8
20260510040043 14 106 0.0 0.0 0.00 0.00 0.00 97 1010.6
20260510035540 14 106 0.0 0.0 0.00 0.00 0.00 96 1010.8
20260510035039 14 106 0.0 0.0 0.00 0.00 0.00 97 1010.7
20260510034538 14 106 0.0 0.0 0.00 0.00 0.00 96 1010.8
20260510034035 14 106 0.0 0.0 0.00 0.00 0.00 96 1010.7
20260510033530 15 106 0.0 0.0 0.00 0.00 0.00 96 1010.6
20260510033029 15 106 0.0 0.0 0.00 0.00 0.00 96 1010.6
20260510032525 15 106 0.0 0.0 0.00 0.00 0.00 96 1010.6
20260510032020 15 106 0.0 0.0 0.00 0.00 0.00 96 1010.6
20260510031516 15 106 0.0 0.0 0.00 0.00 0.00 96 1010.6
20260510031012 15 106 0.0 0.0 0.00 0.00 0.00 96 1010.5
20260510030508 15 106 0.0 0.0 0.00 0.00 0.00 96 1010.4
20260510030005 15 106 0.0 0.0 0.00 0.00 0.00 96 1010.5
20260510025502 15 106 0.0 0.0 0.00 0.00 0.00 96 1010.6
20260510024959 15 106 0.0 0.0 0.00 0.00 0.00 96 1010.3
20260510024456 15 106 0.0 0.0 0.00 0.00 0.00 96 1010.6
20260510023952 15 106 0.0 0.0 0.00 0.00 0.00 96 1010.5
20260510023448 15 106 0.0 0.0 0.00 0.00 0.00 96 1010.5
20260510022945 15 106 0.0 0.0 0.00 0.00 0.00 96 1010.5
20260510022444 15 106 0.0 0.0 0.00 0.00 0.00 96 1010.5
20260510021943 15 106 0.0 0.0 0.00 0.00 0.00 95 1010.6
20260510021441 15 106 0.0 0.0 0.00 0.00 0.00 95 1010.6
20260510020939 15 106 0.0 0.0 0.00 0.00 0.00 95 1010.4
20260510020438 15 106 0.0 0.0 0.00 0.00 0.00 96 1010.2
20260510015934 15 106 0.0 0.0 0.00 0.00 0.00 96 1010.3
20260510015430 15 106 0.0 0.0 0.00 0.00 0.00 95 1010.5
20260510014925 15 106 0.0 0.0 0.00 0.00 0.00 95 1010.2
20260510014423 15 106 0.0 0.0 0.00 0.00 0.00 94 1009.9
20260510013920 16 106 0.0 0.0 0.00 0.00 0.00 94 1010.0
20260510013414 16 106 0.0 0.0 0.00 0.00 0.00 94 1009.9
20260510012910 16 106 0.0 0.0 0.00 0.00 0.00 94 1009.7
20260510012405 16 106 0.0 0.0 0.00 0.00 0.00 94 1009.5
20260510011900 16 106 0.0 0.0 0.00 0.00 0.00 94 1009.5
20260510011355 16 106 0.0 0.0 0.00 0.00 0.00 93 1009.1
20260510010852 16 106 0.0 0.0 0.00 0.00 0.00 92 1009.4
20260510010349 17 106 0.0 0.0 0.00 0.00 0.00 92 1009.2
20260510005846 17 106 0.0 0.0 0.00 0.00 0.00 91 1009.2
20260510005342 17 106 0.0 0.0 0.00 0.00 0.00 90 1009.0
20260510004840 17 106 0.0 0.0 0.00 0.00 0.00 90 1009.3
20260510004337 17 106 0.0 0.0 0.00 0.00 0.00 89 1009.2
20260510003835 17 106 0.0 0.0 0.00 0.00 0.00 89 1009.1
20260510003332 18 106 0.0 0.0 0.00 0.00 0.00 88 1009.1
20260510002830 18 106 0.0 0.0 0.00 0.00 0.00 87 1008.9
20260510002328 18 106 0.0 0.0 0.00 0.00 0.00 87 1009.0
20260510001824 18 106 0.0 0.0 0.00 0.00 0.00 86 1009.0
20260510001322 18 106 0.0 0.0 0.00 0.00 0.00 86 1008.8
20260510000818 19 106 0.0 0.0 0.00 0.00 0.00 85 1008.9
20260510000318 19 106 0.0 0.0 0.00 0.00 0.00 83 1008.9
20260509235813 20 106 0.0 0.0 0.00 0.00 0.00 82 1008.6
20260509235309 20 106 0.0 0.0 0.00 0.00 0.00 81 1008.7
20260509234805 20 106 0.0 0.0 0.00 0.00 0.00 82 1008.7
20260509234302 20 107 0.0 0.0 0.00 0.00 0.00 79 1008.6
20260509233800 20 107 0.0 0.0 0.00 0.00 0.00 77 1008.6
20260509233257 20 107 0.0 0.0 0.00 0.00 0.00 79 1008.2
20260509232753 20 107 0.0 0.0 0.00 0.00 0.00 79 1008.1
20260509232251 20 107 0.0 0.0 0.00 0.00 0.00 79 1008.3
20260509231747 21 107 0.0 1.6 0.00 0.00 0.00 79 1008.4
20260509231244 21 107 0.0 0.0 0.00 0.00 0.00 74 1008.5
20260509230741 21 123 0.0 0.0 0.00 0.00 0.00 76 1008.2
20260509230238 21 122 0.0 0.0 0.00 0.00 0.00 75 1008.1
20260509225733 21 122 0.0 0.0 0.00 0.00 0.00 75 1008.0
20260509225230 21 124 0.0 0.0 0.00 0.00 0.00 75 1008.1
20260509224725 21 124 0.0 1.6 0.00 0.00 0.00 72 1008.2
20260509224223 21 124 0.0 0.0 0.00 0.00 0.00 73 1008.1
20260509223719 21 124 0.0 0.0 0.00 0.00 0.00 72 1008.0
20260509223217 21 124 0.0 0.0 0.00 0.00 0.00 71 1008.0
20260509222713 22 124 0.0 1.6 0.00 0.00 0.00 71 1008.1
20260509222209 21 124 0.0 0.0 0.00 0.00 0.00 71 1008.4
20260509221705 21 123 0.0 1.6 0.00 0.00 0.00 69 1008.2
20260509221201 22 143 1.6 1.6 0.00 0.00 0.00 70 1008.2
20260509220657 22 144 0.0 1.6 0.00 0.00 0.00 69 1008.1
20260509220154 22 89 1.6 1.6 0.00 0.00 0.00 68 1008.0
20260509215649 22 178 0.0 1.6 0.00 0.00 0.00 67 1008.1
20260509215146 22 131 1.6 1.6 0.00 0.00 0.00 69 1008.2
20260509214643 22 156 0.0 1.6 0.00 0.00 0.00 68 1008.2
20260509214140 22 187 0.0 3.2 0.00 0.00 0.00 69 1008.1
20260509213637 22 137 0.0 3.2 0.00 0.00 0.00 68 1008.1
20260509213133 22 60 0.0 0.0 0.00 0.00 0.00 69 1008.1
20260509212631 22 56 1.6 3.2 0.00 0.00 0.00 66 1008.1
20260509212127 22 214 0.0 1.6 0.00 0.00 0.00 67 1007.9
20260509211623 22 244 3.2 3.2 0.00 0.00 0.00 67 1008.1
20260509211120 21 142 0.0 3.2 0.00 0.00 0.00 69 1008.0
20260509210616 22 92 1.6 3.2 0.00 0.00 0.00 69 1008.0
20260509210114 22 88 0.0 0.0 0.00 0.00 0.00 71 1007.7
20260509205608 22 88 0.0 1.6 0.00 0.00 0.00 71 1007.8
20260509205103 22 88 0.0 0.0 0.00 0.00 0.00 70 1007.9
20260509204559 22 87 0.0 1.6 0.00 0.00 0.00 68 1008.0
20260509204056 22 172 1.6 1.6 0.00 0.00 0.00 71 1008.1
20260509203552 22 94 0.0 0.0 0.00 0.00 0.00 69 1007.9
20260509203051 22 95 0.0 0.0 0.00 0.00 0.00 71 1008.0
20260509202550 22 95 0.0 0.0 0.00 0.00 0.00 69 1007.9
20260509202046 22 97 0.0 1.6 0.00 0.00 0.00 68 1008.1
20260509201541 22 114 3.2 4.8 0.00 0.00 0.00 68 1008.0
20260509201040 22 143 0.0 3.2 0.00 0.00 0.00 68 1008.0
20260509200538 22 151 1.6 3.2 0.00 0.00 0.00 67 1008.2
20260509200036 21 108 1.6 1.6 0.00 0.00 0.00 71 1008.2
20260509195531 21 138 0.0 3.2 0.00 0.00 0.00 69 1008.2
20260509195031 21 124 1.6 1.6 0.00 0.00 0.00 69 1008.2
20260509194526 21 77 0.0 1.6 0.00 0.00 0.00 67 1008.4
20260509194024 21 75 1.6 1.6 0.00 0.00 0.00 67 1008.3
20260509193524 21 58 0.0 0.0 0.00 0.00 0.00 69 1008.5
20260509193022 22 168 1.6 3.2 0.00 0.00 0.00 68 1008.4
20260509192518 22 181 0.0 1.6 0.00 0.00 0.00 69 1008.4
20260509192013 21 149 0.0 0.0 0.00 0.00 0.00 69 1008.4
20260509191508 22 131 0.0 1.6 0.00 0.00 0.00 65 1008.7
20260509191003 22 137 0.0 1.6 0.00 0.00 0.00 66 1008.7
20260509190500 21 170 0.0 0.0 0.00 0.00 0.00 67 1008.6
20260509185958 21 61 0.0 3.2 0.00 0.00 0.00 66 1008.6
20260509185455 22 118 0.0 1.6 0.00 0.00 0.00 66 1008.5
20260509184952 22 175 0.0 1.6 0.00 0.00 0.00 61 1008.4
20260509184450 23 212 1.6 3.2 0.00 0.00 0.00 59 1008.5
20260509183947 23 304 1.6 4.8 0.00 0.00 0.00 61 1008.7
20260509183447 23 239 1.6 6.4 0.00 0.00 0.00 67 1008.6
20260509182943 22 135 1.6 3.2 0.00 0.00 0.00 65 1008.8
20260509182440 22 139 1.6 3.2 0.00 0.00 0.00 63 1008.6
20260509181937 22 101 0.0 1.6 0.00 0.00 0.00 64 1008.8
20260509181435 22 274 0.0 1.6 0.00 0.00 0.00 63 1008.9
20260509180932 22 151 0.0 1.6 0.00 0.00 0.00 65 1009.0
20260509180427 23 267 0.0 4.8 0.00 0.00 0.00 59 1008.9
20260509175925 22 266 1.6 3.2 0.00 0.00 0.00 61 1009.0
20260509175421 22 129 0.0 3.2 0.00 0.00 0.00 66 1009.1
20260509174917 22 114 1.6 1.6 0.00 0.00 0.00 63 1009.2
20260509174413 21 122 1.6 3.2 0.00 0.00 0.00 64 1009.5
20260509173910 22 148 1.6 3.2 0.00 0.00 0.00 60 1009.2
20260509173409 22 138 0.0 3.2 0.00 0.00 0.00 60 1009.4
20260509172906 22 161 1.6 3.2 0.00 0.00 0.00 61 1009.5
20260509172403 21 158 0.0 3.2 0.00 0.00 0.00 62 1009.5
20260509171859 21 149 3.2 3.2 0.00 0.00 0.00 63 1009.7
20260509171355 21 94 1.6 3.2 0.00 0.00 0.00 61 1009.8
20260509170851 21 154 1.6 1.6 0.00 0.00 0.00 62 1009.9
20260509170347 22 135 3.2 4.8 0.00 0.00 0.00 61 1009.9
20260509165842 21 73 1.6 3.2 0.00 0.00 0.00 59 1009.8
20260509165336 21 146 0.0 3.2 0.00 0.00 0.00 60 1010.0
20260509164833 21 111 3.2 4.8 0.00 0.00 0.00 60 1010.2
20260509164329 21 150 3.2 4.8 0.00 0.00 0.00 61 1010.1
20260509163825 21 134 0.0 3.2 0.00 0.00 0.00 60 1010.3
20260509163322 21 156 0.0 4.8 0.00 0.00 0.00 59 1010.4
20260509162822 22 245 0.0 1.6 0.00 0.00 0.00 59 1010.4